Weather History for KTYR - January, 2014

Change the Weather History Date:

Monday, January 27, 2014

  Actual Average Record
Temperature  
Mean Temperature 42 °F 47 °F  
Max Temperature 52 °F 57 °F 81 °F (1975)
Min Temperature 32 °F 37 °F 11 °F (1897)
Degree Days  
Heating Degree Days 23 18  
Month to date heating degree days 530 509  
Since 1 July heating degree days 1490 1410  
Cooling Degree Days 0 0  
Month to date cooling degree days 0 0  
Year to date cooling degree days 0 0  
Moisture  
Dew Point 18 °F    
Average Humidity 49    
Maximum Humidity 76    
Minimum Humidity 21    
Precipitation  
Precipitation 0.00 in 0.11 in 2.03 in (1992)
Month to date precipitation 0.70 2.67  
Year to date precipitation 0.70 2.67  
Snow  
Snow 0.00 in - - ()
Month to date snowfall 0.0  
Since 1 July snowfall T  
Snow Depth 0.00 in    
Sea Level Pressure  
Sea Level Pressure 30.08 in    
Wind  
Wind Speed 13 mph (NNE)    
Max Wind Speed 23 mph    
Max Gust Speed 33 mph    
Visibility 10 miles    
Events      
T = Trace of Precipitation, MM = Missing Value Source: NWS Daily Summary

Daily Weather History Graph

Daily Weather History Graph

Search for Another Location

Airport or City:

Trip Planner

Search our weather history database for the weather conditions in past years. The results will help you decide how hot, cold, wet, or windy it might be!

Date:

Astronomy

Jan. 27, 2014 Rise Set
Actual Time 7:18 AM CST 5:50 PM CST
Civil Twilight 6:52 AM CST 6:16 PM CST
Nautical Twilight 6:23 AM CST 6:45 PM CST
Astronomical Twilight 5:54 AM CST 7:15 PM CST
Moon 3:58 AM CST (1/27) 2:39 PM CST (1/27)
Length of Visible Light 11h 23m
Length of Day
10h 31m
Waning Crescent, 14% of the Moon is Illuminated
Jan 27
Waning Crescent
Jan 30
New
Feb 6
First Quarter
Feb 14
Full
Feb 22
Last Quarter

Hourly Weather History & Observations

Time (CST) Temp. Windchill Dew Point Humidity Pressure Visibility Wind Dir Wind Speed Gust Speed Precip Events Conditions
12:53 AM 48.0 °F - 39.9 °F 74% 29.76 in 10.0 mi SSE 5.8 mph - N/A   Clear
1:53 AM 46.0 °F - 39.0 °F 76% 29.79 in 10.0 mi Calm Calm - N/A   Clear
2:53 AM 44.1 °F 41.5 °F 37.9 °F 79% 29.81 in 10.0 mi NE 4.6 mph - N/A   Clear
3:53 AM 44.1 °F 40.8 °F 37.0 °F 76% 29.85 in 10.0 mi North 5.8 mph - N/A   Clear
4:53 AM 46.9 °F - 36.0 °F 66% 29.90 in 10.0 mi North 18.4 mph 29.9 mph N/A   Clear
5:53 AM 45.0 °F 37.9 °F 30.9 °F 58% 29.94 in 10.0 mi North 16.1 mph 33.4 mph N/A   Clear
6:53 AM 43.0 °F 35.4 °F 25.0 °F 49% 30.01 in 10.0 mi NNE 16.1 mph 29.9 mph N/A   Clear
7:53 AM 41.0 °F 33.5 °F 21.9 °F 47% 30.07 in 10.0 mi North 13.8 mph 21.9 mph N/A   Clear
8:53 AM 42.1 °F 34.2 °F 17.1 °F 37% 30.12 in 10.0 mi NNE 16.1 mph - N/A   Clear
9:53 AM 44.1 °F 37.1 °F 15.1 °F 31% 30.14 in 10.0 mi NNE 15.0 mph 27.6 mph N/A   Clear
10:53 AM 46.0 °F 39.0 °F 14.0 °F 28% 30.18 in 10.0 mi NNE 17.3 mph 25.3 mph N/A   Clear
11:53 AM 48.0 °F - 12.9 °F 24% 30.17 in 10.0 mi NE 13.8 mph 21.9 mph N/A   Clear
12:53 PM 50.0 °F - 12.9 °F 23% 30.15 in 10.0 mi NNE 15.0 mph 27.6 mph N/A   Clear
1:53 PM 48.9 °F - 12.9 °F 24% 30.13 in 10.0 mi North 18.4 mph 23.0 mph N/A   Clear
2:53 PM 52.0 °F - 14.0 °F 22% 30.14 in 10.0 mi NNE 10.4 mph 19.6 mph N/A   Clear
3:53 PM 48.9 °F - 12.9 °F 24% 30.13 in 10.0 mi NNE 15.0 mph - N/A   Clear
4:53 PM 46.0 °F 39.6 °F 10.9 °F 24% 30.16 in 10.0 mi North 15.0 mph - N/A   Clear
5:53 PM 43.0 °F 36.8 °F 7.0 °F 23% 30.18 in 10.0 mi NNE 11.5 mph 21.9 mph N/A   Clear
6:53 PM 39.9 °F 32.5 °F 6.1 °F 25% 30.19 in 10.0 mi North 12.7 mph - N/A   Clear
7:53 PM 37.9 °F 30.9 °F 6.1 °F 27% 30.22 in 10.0 mi North 10.4 mph - N/A   Clear
8:53 PM 36.0 °F 26.7 °F 5.0 °F 27% 30.23 in 10.0 mi North 15.0 mph 20.7 mph N/A   Clear
9:53 PM 34.0 °F 24.6 °F 3.9 °F 28% 30.24 in 10.0 mi North 13.8 mph 20.7 mph N/A   Clear
10:53 PM 33.1 °F 24.4 °F 3.9 °F 29% 30.25 in 10.0 mi North 11.5 mph - N/A   Clear
11:53 PM 33.1 °F 25.5 °F 5.0 °F 31% 30.26 in 10.0 mi North 9.2 mph - N/A   Clear